NF212 KCHA-KLZU

Flight info

Callsign NF212
Flight time N/A
Altitude 3500
Route HLNDS BUKHD3
Aircraft C172/L-SFG/C

Departure

Time 2026-04-29 23:52
Airport Chattanooga Metropolitan Airport (Lovell Field) (KCHA)

Arrival

Time N/A
Airport Gwinnett County Briscoe Field (KLZU)
Time Latitude Longitude Altitude Speed Heading
2026-04-29 23:34 35.03524 -85.19719 676 ft 0 kts 91°
2026-04-29 23:42 35.03524 -85.19717 676 ft 2 kts 99°
2026-04-29 23:42 35.03516 -85.19743 676 ft 9 kts 315°
2026-04-29 23:42 35.03539 -85.19796 676 ft 8 kts 271°
2026-04-29 23:43 35.03491 -85.19832 676 ft 8 kts 160°
2026-04-29 23:43 35.03458 -85.19805 676 ft 2 kts 165°
2026-04-29 23:43 35.03451 -85.19807 676 ft 3 kts 220°
2026-04-29 23:43 35.03449 -85.19810 676 ft 0 kts 237°
2026-04-29 23:48 35.03443 -85.19821 676 ft 2 kts 231°
2026-04-29 23:49 35.03441 -85.19824 676 ft 4 kts 235°
2026-04-29 23:49 35.03417 -85.19870 675 ft 8 kts 245°
2026-04-29 23:49 35.03432 -85.19926 674 ft 6 kts 330°
2026-04-29 23:50 35.03436 -85.19929 674 ft 0 kts 323°
2026-04-29 23:50 35.03783 -85.20210 675 ft 61 kts 325°
2026-04-29 23:51 35.04138 -85.20538 757 ft 63 kts 325°
2026-04-29 23:51 35.04485 -85.20851 874 ft 63 kts 328°
2026-04-29 23:51 35.04831 -85.21205 992 ft 65 kts 321°
2026-04-29 23:51 35.05191 -85.21529 1141 ft 62 kts 326°
2026-04-29 23:52 35.05555 -85.21779 1280 ft 64 kts 335°
2026-04-29 23:52 35.05915 -85.22088 1466 ft 59 kts 324°
2026-04-29 23:52 35.06262 -85.22367 1611 ft 60 kts 331°
2026-04-29 23:52 35.06644 -85.22569 1714 ft 62 kts 336°
2026-04-29 23:53 35.06941 -85.23046 1795 ft 76 kts 300°
2026-04-29 23:53 35.07138 -85.23649 1898 ft 76 kts 298°
2026-04-29 23:53 35.07275 -85.24327 2001 ft 88 kts 281°
2026-04-29 23:53 35.06987 -85.25043 2051 ft 106 kts 226°
2026-04-29 23:54 35.06193 -85.25193 1914 ft 127 kts 166°
2026-04-29 23:54 35.05586 -85.24497 1942 ft 120 kts 102°
2026-04-29 23:54 35.05339 -85.23505 1849 ft 120 kts 106°
2026-04-29 23:54 35.05135 -85.22605 1934 ft 105 kts 104°
2026-04-29 23:55 35.04859 -85.21748 1884 ft 111 kts 125°
2026-04-29 23:55 35.04192 -85.21374 1881 ft 111 kts 187°
2026-04-29 23:55 35.03408 -85.21410 1927 ft 112 kts 187°
2026-04-29 23:55 35.02632 -85.21463 1948 ft 115 kts 186°
2026-04-29 23:56 35.01853 -85.21498 2005 ft 112 kts 188°
2026-04-29 23:56 35.01056 -85.21440 1897 ft 120 kts 173°
2026-04-29 23:56 35.00261 -85.21206 1950 ft 115 kts 169°
2026-04-29 23:56 34.99486 -85.20966 1927 ft 116 kts 170°
2026-04-29 23:57 34.98724 -85.20683 1902 ft 118 kts 159°
2026-04-29 23:57 34.98040 -85.20196 1915 ft 111 kts 172°
2026-04-29 23:57 34.97296 -85.20076 1930 ft 106 kts 174°
2026-04-29 23:57 34.96561 -85.19937 1908 ft 106 kts 176°
2026-04-29 23:58 34.95839 -85.19809 1921 ft 106 kts 180°
2026-04-29 23:58 34.95111 -85.19678 1907 ft 104 kts 176°
2026-04-29 23:58 34.94421 -85.19550 1921 ft 102 kts 182°
2026-04-29 23:58 34.93738 -85.19429 1895 ft 93 kts 184°
2026-04-29 23:59 34.93143 -85.19304 1903 ft 86 kts 177°
2026-04-29 23:59 34.92566 -85.19217 1924 ft 83 kts 179°
2026-04-29 23:59 34.92020 -85.19119 1913 ft 76 kts 179°
2026-04-29 23:59 34.91453 -85.19009 1916 ft 86 kts 181°
2026-04-30 00:00 34.90817 -85.18920 2012 ft 98 kts 177°
2026-04-30 00:00 34.90124 -85.18749 2125 ft 108 kts 168°
2026-04-30 00:00 34.89354 -85.18491 2124 ft 119 kts 168°
2026-04-30 00:00 34.88552 -85.18228 2195 ft 119 kts 164°
2026-04-30 00:01 34.87760 -85.17947 2312 ft 117 kts 163°
2026-04-30 00:01 34.86968 -85.17635 2279 ft 122 kts 165°
2026-04-30 00:01 34.86150 -85.17401 2312 ft 123 kts 169°
2026-04-30 00:01 34.85321 -85.17168 2349 ft 123 kts 168°
2026-04-30 00:02 34.84461 -85.16916 2318 ft 125 kts 174°
2026-04-30 00:02 34.83600 -85.16786 2317 ft 127 kts 175°
2026-04-30 00:02 34.82702 -85.16632 2249 ft 131 kts 176°
2026-04-30 00:02 34.81812 -85.16501 2115 ft 126 kts 178°
2026-04-30 00:03 34.80951 -85.16399 2013 ft 124 kts 179°
2026-04-30 00:03 34.80095 -85.16293 1949 ft 123 kts 176°
2026-04-30 00:03 34.79244 -85.16290 1858 ft 122 kts 197°
2026-04-30 00:03 34.78417 -85.16488 1832 ft 115 kts 203°
2026-04-30 00:04 34.77615 -85.16569 1900 ft 122 kts 179°
2026-04-30 00:04 34.76750 -85.16458 1911 ft 132 kts 177°
2026-04-30 00:04 34.75822 -85.16320 1904 ft 135 kts 176°
2026-04-30 00:04 34.74898 -85.16166 1913 ft 136 kts 175°
2026-04-30 00:05 34.73940 -85.15997 1903 ft 141 kts 176°
2026-04-30 00:05 34.72989 -85.15828 1911 ft 135 kts 176°
2026-04-30 00:05 34.72048 -85.15680 1912 ft 139 kts 178°
2026-04-30 00:05 34.71410 -85.15571 1902 ft 140 kts 174°
2026-04-30 00:06 34.70143 -85.15384 1918 ft 130 kts 178°
2026-04-30 00:06 34.69253 -85.15350 1844 ft 125 kts 182°
2026-04-30 00:06 34.68678 -85.15297 1811 ft 123 kts 175°
2026-04-30 00:06 34.67612 -85.14927 1640 ft 125 kts 140°
2026-04-30 00:07 34.66940 -85.14309 1535 ft 120 kts 168°
2026-04-30 00:07 34.66386 -85.14145 1424 ft 123 kts 168°
2026-04-30 00:07 34.65561 -85.13865 1305 ft 125 kts 169°
2026-04-30 00:07 34.64437 -85.13564 1148 ft 122 kts 191°
2026-04-30 00:08 34.63933 -85.13823 1170 ft 119 kts 211°
2026-04-30 00:08 34.63133 -85.14006 1204 ft 115 kts 178°
2026-04-30 00:08 34.62378 -85.13901 1373 ft 107 kts 173°
2026-04-30 00:08 34.61614 -85.13700 1466 ft 111 kts 176°
2026-04-30 00:09 34.60831 -85.13518 1640 ft 114 kts 173°
2026-04-30 00:09 34.60040 -85.13210 1657 ft 126 kts 152°
2026-04-30 00:09 34.59485 -85.12396 1676 ft 125 kts 119°
2026-04-30 00:09 34.59010 -85.11566 1902 ft 111 kts 127°
2026-04-30 00:10 34.58553 -85.10786 2044 ft 117 kts 122°
2026-04-30 00:10 34.58327 -85.09858 1913 ft 118 kts 104°
2026-04-30 00:10 34.58014 -85.08971 1860 ft 117 kts 123°
2026-04-30 00:10 34.57491 -85.08203 1962 ft 120 kts 137°
2026-04-30 00:11 34.56849 -85.07671 2009 ft 124 kts 156°
2026-04-30 00:11 34.56059 -85.07200 2055 ft 130 kts 155°
2026-04-30 00:11 34.55253 -85.06713 2239 ft 124 kts 159°
2026-04-30 00:11 34.54489 -85.06346 2487 ft 117 kts 168°
2026-04-30 00:12 34.53809 -85.06138 2536 ft 112 kts 177°
2026-04-30 00:12 34.53053 -85.05968 2683 ft 109 kts 175°
2026-04-30 00:12 34.52309 -85.05846 2844 ft 107 kts 181°
2026-04-30 00:12 34.51569 -85.05800 3029 ft 105 kts 188°
2026-04-30 00:13 34.50852 -85.05828 3164 ft 103 kts 194°
2026-04-30 00:13 34.50146 -85.05926 3315 ft 101 kts 199°
2026-04-30 00:13 34.49460 -85.06085 3459 ft 98 kts 205°
2026-04-30 00:13 34.48791 -85.06341 3511 ft 106 kts 212°
2026-04-30 00:14 34.48094 -85.06739 3519 ft 115 kts 218°
2026-04-30 00:14 34.47355 -85.07176 3492 ft 127 kts 198°
2026-04-30 00:14 34.46498 -85.06847 3484 ft 137 kts 141°
2026-04-30 00:14 34.45897 -85.05953 3511 ft 137 kts 142°
2026-04-30 00:15 34.45123 -85.05286 3501 ft 137 kts 150°
2026-04-30 00:15 34.44338 -85.04631 3495 ft 137 kts 150°
2026-04-30 00:15 34.43557 -85.03984 3488 ft 138 kts 149°
2026-04-30 00:15 34.42746 -85.03314 3493 ft 139 kts 150°
2026-04-30 00:16 34.41954 -85.02657 3489 ft 140 kts 150°
2026-04-30 00:16 34.41168 -85.02006 3484 ft 134 kts 150°
2026-04-30 00:16 34.40413 -85.01376 3487 ft 130 kts 150°
2026-04-30 00:16 34.39675 -85.00762 3488 ft 128 kts 150°
2026-04-30 00:17 34.38946 -85.00156 3484 ft 126 kts 149°
2026-04-30 00:17 34.38228 -84.99560 3487 ft 125 kts 150°
2026-04-30 00:17 34.37502 -84.98961 3484 ft 126 kts 149°
2026-04-30 00:17 34.36786 -84.98369 3486 ft 124 kts 152°
2026-04-30 00:18 34.36080 -84.97785 3484 ft 123 kts 152°
2026-04-30 00:18 34.35379 -84.97203 3483 ft 125 kts 151°
2026-04-30 00:18 34.34662 -84.96612 3485 ft 126 kts 150°
2026-04-30 00:18 34.33931 -84.96011 3488 ft 128 kts 151°
2026-04-30 00:19 34.33190 -84.95401 3488 ft 129 kts 150°
2026-04-30 00:19 34.32453 -84.94795 3481 ft 128 kts 150°
2026-04-30 00:19 34.31715 -84.94184 3483 ft 129 kts 151°
2026-04-30 00:19 34.30978 -84.93574 3483 ft 127 kts 151°
2026-04-30 00:20 34.30244 -84.92968 3497 ft 128 kts 150°
2026-04-30 00:20 34.29505 -84.92360 3503 ft 130 kts 151°
2026-04-30 00:20 34.28756 -84.91744 3504 ft 130 kts 151°
2026-04-30 00:20 34.28007 -84.91127 3502 ft 131 kts 150°
2026-04-30 00:21 34.27256 -84.90509 3488 ft 131 kts 151°
2026-04-30 00:21 34.26510 -84.89894 3480 ft 128 kts 150°
2026-04-30 00:21 34.25783 -84.89292 3480 ft 129 kts 151°
2026-04-30 00:21 34.25042 -84.88684 3483 ft 129 kts 151°
2026-04-30 00:22 34.24298 -84.88071 3482 ft 130 kts 151°
2026-04-30 00:22 34.23558 -84.87461 3485 ft 128 kts 151°
2026-04-30 00:22 34.22825 -84.86856 3489 ft 128 kts 152°
2026-04-30 00:22 34.22084 -84.86248 3490 ft 130 kts 152°
2026-04-30 00:23 34.21335 -84.85629 3490 ft 131 kts 149°
2026-04-30 00:23 34.20797 -84.84753 3485 ft 131 kts 111°
2026-04-30 00:23 34.20532 -84.83707 3493 ft 130 kts 108°
2026-04-30 00:23 34.20266 -84.82651 3490 ft 132 kts 108°
2026-04-30 00:24 34.19997 -84.81586 3493 ft 133 kts 108°
2026-04-30 00:24 34.19725 -84.80521 3495 ft 133 kts 108°